Weather History for KCCR - February, 2014

Change the Weather History Date:

Monday, February 3, 2014

  Actual Average Record
Temperature  
Mean Temperature 47 °F 50 °F  
Max Temperature 57 °F 58 °F 70 °F (2015)
Min Temperature 36 °F 41 °F 33 °F (2002)
Degree Days  
Heating Degree Days 18    
Month to date heating degree days 55  
Since 1 July heating degree days 1486  
Cooling Degree Days 0    
Month to date cooling degree days 0  
Year to date cooling degree days 0  
Moisture  
Dew Point 38 °F    
Average Humidity 74    
Maximum Humidity 100    
Minimum Humidity 47    
Precipitation  
Precipitation 0.00 in - 0.18 in (2004)
Month to date precipitation 0.22  
Year to date precipitation 0.32  
Since 1 July precipitation 2.80  
Sea Level Pressure  
Sea Level Pressure 30.00 in    
Wind  
Wind Speed 5 mph (SW)    
Max Wind Speed 18 mph    
Max Gust Speed 23 mph    
Visibility 10 miles    
Events      
T = Trace of Precipitation, MM = Missing Value Source: NWS Daily Summary

Daily Weather History Graph

Daily Weather History Graph

Search for Another Location

Airport or City:

Trip Planner

Search our weather history database for the weather conditions in past years. The results will help you decide how hot, cold, wet, or windy it might be!

Date:

Astronomy

Feb. 03, 2014 Rise Set
Actual Time 7:10 AM PST 5:33 PM PST
Civil Twilight 6:43 AM PST 6:01 PM PST
Nautical Twilight 6:11 AM PST 6:32 PM PST
Astronomical Twilight 5:40 AM PST 7:03 PM PST
Moon 9:21 AM PST (2/3) 10:24 PM PST (2/3)
Length of Visible Light 11h 18m
Length of Day
10h 23m
Waxing Crescent, 20% of the Moon is Illuminated
Feb 3
Waxing Crescent
Feb 6
First Quarter
Feb 14
Full
Feb 22
Last Quarter
Mar 1
New

Hourly Weather History & Observations

Time (PST) Temp. Windchill Dew Point Humidity Pressure Visibility Wind Dir Wind Speed Gust Speed Precip Events Conditions
12:53 AM 42.1 °F - 39.0 °F 89% 29.98 in 10.0 mi Calm Calm - N/A   Clear
1:53 AM 37.9 °F - 37.9 °F 100% 29.98 in 8.0 mi Calm Calm - N/A   Clear
2:53 AM 37.9 °F - 37.0 °F 97% 29.99 in 8.0 mi Calm Calm - N/A   Overcast
3:53 AM 39.0 °F - 39.0 °F 100% 29.98 in 9.0 mi Calm Calm - N/A   Overcast
4:53 AM 39.9 °F - 39.0 °F 97% 29.99 in 9.0 mi Calm Calm - N/A   Overcast
5:53 AM 39.0 °F - 37.9 °F 96% 29.99 in 9.0 mi Calm Calm - N/A   Partly Cloudy
6:53 AM 37.9 °F - 37.9 °F 100% 30.00 in 7.0 mi Calm Calm - N/A   Clear
7:53 AM 37.9 °F - 37.9 °F 100% 30.01 in 10.0 mi Calm Calm - N/A   Clear
8:53 AM 42.1 °F 39.2 °F 39.9 °F 92% 30.03 in 9.0 mi South 4.6 mph - N/A   Clear
9:53 AM 46.9 °F - 39.9 °F 77% 30.04 in 10.0 mi SSW 5.8 mph - N/A   Clear
10:53 AM 51.1 °F - 39.0 °F 63% 30.04 in 10.0 mi West 9.2 mph - N/A   Clear
11:53 AM 52.0 °F - 39.0 °F 61% 30.01 in 10.0 mi WNW 15.0 mph 23.0 mph N/A   Scattered Clouds
12:53 PM 54.0 °F - 39.0 °F 57% 30.00 in 10.0 mi WNW 13.8 mph 18.4 mph N/A   Clear
1:53 PM 55.9 °F - 36.0 °F 47% 29.97 in 10.0 mi WNW 13.8 mph 18.4 mph N/A   Scattered Clouds
2:53 PM 55.0 °F - 35.1 °F 47% 29.96 in 10.0 mi West 10.4 mph - N/A   Scattered Clouds
3:53 PM 55.0 °F - 36.0 °F 49% 29.95 in 10.0 mi West 10.4 mph - N/A   Clear
4:53 PM 54.0 °F - 36.0 °F 51% 29.95 in 10.0 mi WSW 6.9 mph - N/A   Partly Cloudy
5:53 PM 50.0 °F - 37.9 °F 63% 29.98 in 10.0 mi West 4.6 mph - N/A   Partly Cloudy
6:53 PM 48.0 °F - 37.9 °F 68% 29.99 in 10.0 mi SSW 5.8 mph - N/A   Clear
7:53 PM 46.9 °F - 37.9 °F 71% 30.01 in 10.0 mi SW 4.6 mph - N/A   Partly Cloudy
8:53 PM 43.0 °F 41.3 °F 37.9 °F 82% 30.01 in 10.0 mi SSE 3.5 mph - N/A   Partly Cloudy
9:53 PM 41.0 °F 37.1 °F 37.0 °F 86% 30.02 in 10.0 mi South 5.8 mph - N/A   Clear
10:53 PM 43.0 °F 38.8 °F 37.9 °F 82% 30.04 in 10.0 mi SSW 6.9 mph - N/A   Clear
11:53 PM 39.9 °F 36.7 °F 37.0 °F 89% 30.04 in 10.0 mi South 4.6 mph - N/A   Clear